KM4USQ Weather Reports


Display with metric or nautical units.
time (UTC)temp
F
wind
direction
speed
MPH
gust
MPH
rain 1hr
in
rain 24hr
in
rain mn
in
humidity
%
barometer
mb
20260504234015 80 204 5.0 8.0 0.00 0.00 0.00 39 1012.7
20260504233018 82 181 4.0 10.0 0.00 0.00 0.00 38 1012.7
20260504232041 83 233 5.0 9.0 0.00 0.00 0.00 37 1012.7
20260504231024 83 164 5.0 12.0 0.00 0.00 0.00 36 1012.7
20260504230028 84 194 6.0 13.0 0.00 0.00 0.00 36 1012.8
20260504225031 84 102 5.0 11.0 0.00 0.00 0.00 36 1012.6
20260504224016 82 135 5.0 8.0 0.00 0.00 0.00 37 1012.8
20260504223019 83 159 4.0 8.0 0.00 0.00 0.00 36 1012.8
20260504222022 85 142 5.0 10.0 0.00 0.00 0.00 35 1012.8
20260504221025 85 140 6.0 11.0 0.00 0.00 0.00 34 1012.7
20260504220028 86 114 5.0 9.0 0.00 0.00 0.00 34 1012.7
20260504215031 86 139 4.0 6.0 0.00 0.00 0.00 35 1012.8
20260504214017 86 166 5.0 10.0 0.00 0.00 0.00 34 1012.8
20260504213020 88 132 4.0 7.0 0.00 0.00 0.00 33 1012.9
20260504212023 87 117 5.0 8.0 0.00 0.00 0.00 33 1013.0
20260504211027 88 119 5.0 8.0 0.00 0.00 0.00 33 1013.1
20260504210029 88 116 6.0 11.0 0.00 0.00 0.00 32 1013.2
20260504205015 88 236 3.0 5.0 0.00 0.00 0.00 34 1013.1
20260504204018 88 126 4.0 6.0 0.00 0.00 0.00 33 1013.4
20260504203021 87 107 6.0 9.0 0.00 0.00 0.00 34 1013.6
20260504202018 88 109 6.0 9.0 0.00 0.00 0.00 34 1013.7
20260504201015 88 198 5.0 10.0 0.00 0.00 0.00 33 1013.8
20260504200030 88 127 4.0 8.0 0.00 0.00 0.00 34 1014.1
20260504195015 88 174 4.0 6.0 0.00 0.00 0.00 34 1014.2
20260504194019 87 98 6.0 11.0 0.00 0.00 0.00 35 1014.4
20260504193022 86 257 5.0 8.0 0.00 0.00 0.00 36 1014.6
20260504192025 87 285 6.0 11.0 0.00 0.00 0.00 35 1014.7
20260504191028 86 158 5.0 7.0 0.00 0.00 0.00 35 1014.8
20260504190031 86 167 5.0 8.0 0.00 0.00 0.00 34 1015.0
20260504185016 86 63 5.0 8.0 0.00 0.00 0.00 34 1015.2
20260504184020 87 63 6.0 12.0 0.00 0.00 0.00 34 1015.2
20260504183023 87 75 5.0 8.0 0.00 0.00 0.00 36 1015.3
20260504182026 86 281 4.0 9.0 0.00 0.00 0.00 36 1015.3
20260504181029 86 207 4.0 8.0 0.00 0.00 0.00 36 1015.3
20260504180032 85 114 6.0 9.0 0.00 0.00 0.00 36 1015.5
20260504175017 84 133 4.0 6.0 0.00 0.00 0.00 38 1015.9
20260504174020 84 258 6.0 8.0 0.00 0.00 0.00 39 1015.9
20260504173024 84 165 5.0 7.0 0.00 0.00 0.00 38 1016.0
20260504172026 84 130 5.0 9.0 0.00 0.00 0.00 40 1016.1
20260504171024 84 147 5.0 7.0 0.00 0.00 0.00 40 1016.2
20260504151112 75 290 4.0 6.0 0.00 0.00 0.00 53 1017.2
20260504141032 69 274 3.0 7.0 0.00 0.00 0.00 64 1017.4
20260504081020 61 105 3.0 5.0 0.00 0.00 0.00 68 1016.9
20260504050021 60 158 3.0 5.0 0.00 0.00 0.00 65 1018.3
20260504045023 60 146 2.0 3.0 0.00 0.00 0.00 65 1018.3
20260504044026 59 163 2.0 4.0 0.00 0.00 0.00 65 1018.3
20260504043030 59 142 1.0 3.0 0.00 0.00 0.00 66 1018.3
20260504042014 59 0.0 0.0 0.00 0.00 0.00 65 1018.2
20260504041018 59 0.0 0.0 0.00 0.00 0.00 64 1018.2
20260504040021 60 0.0 0.0 0.00 0.00 0.00 64 1018.4
20260504035024 60 0.0 0.0 0.00 0.00 0.00 63 1018.4
20260504034047 60 0.0 0.0 0.00 0.00 0.00 62 1018.4
20260504033031 61 0.0 0.0 0.00 0.00 0.00 61 1018.6
20260504032016 61 0.0 0.0 0.00 0.00 0.00 60 1018.7
20260504031019 61 0.0 0.0 0.00 0.00 0.00 59 1018.7
20260504030022 62 0.0 0.0 0.00 0.00 0.00 59 1018.7
20260504025019 62 0.0 0.0 0.00 0.00 0.00 57 1018.6
20260504024016 62 0.0 0.0 0.00 0.00 0.00 57 1018.6
20260504023032 63 0.0 0.0 0.00 0.00 0.00 56 1018.5
20260504022017 63 0.0 0.0 0.00 0.00 0.00 55 1018.4
20260504021020 64 0.0 0.0 0.00 0.00 0.00 54 1018.4
20260504020043 64 0.0 0.0 0.00 0.00 0.00 53 1018.3
20260504015026 65 0.0 0.0 0.00 0.00 0.00 51 1018.2
20260504014030 65 0.0 0.0 0.00 0.00 0.00 50 1018.1
20260504013033 66 0.0 0.0 0.00 0.00 0.00 47 1018.2
20260504012018 67 0.0 0.0 0.00 0.00 0.00 46 1018.2
20260504011021 68 0.0 0.0 0.00 0.00 0.00 44 1018.2
20260504010024 70 0.0 0.0 0.00 0.00 0.00 42 1018.1
20260504005027 71 0.0 0.0 0.00 0.00 0.00 40 1018.2
20260504004031 73 108 0.0 2.0 0.00 0.00 0.00 39 1018.2
20260504003016 75 0.0 0.0 0.00 0.00 0.00 36 1018.2
20260504002019 76 180 1.0 3.0 0.00 0.00 0.00 35 1018.1
20260504001042 79 71 2.0 5.0 0.00 0.00 0.00 32 1018.1
20260504000026 80 1 2.0 5.0 0.00 0.00 0.00 31 1018.2
20260503235028 81 337 2.0 3.0 0.00 0.00 0.00 30 1018.3